Previsão horária em Pliskowola

Hoje, 24 Fevereiro, Quarta-feira

Tempo Temperatura Precipitação Vento Pressão Humidade
00:00 +2°C° 0 mm 3 m/s 760 mmHg 81%
01:00 +2°C° 0 mm 3 m/s 760 mmHg 84%
02:00 +3°C° 0 mm 2 m/s 760 mmHg 85%
03:00 +4°C° 0 mm 2 m/s 760 mmHg 85%
04:00 +4°C° 0 mm 2 m/s 760 mmHg 86%
05:00 +3°C° 0 mm 2 m/s 760 mmHg 84%
06:00 +3°C° 0 mm 2 m/s 760 mmHg 83%
07:00 +3°C° 0 mm 2 m/s 760 mmHg 81%
08:00 +4°C° 0 mm 2 m/s 760 mmHg 86%
09:00 +5°C° 0 mm 2 m/s 760 mmHg 91%
10:00 +6°C° 0 mm 2 m/s 760 mmHg 96%
11:00 +7°C° 0 mm 2 m/s 760 mmHg 95%
12:00 +8°C° 0 mm 2 m/s 759 mmHg 93%
13:00 +9°C° 0 mm 2 m/s 759 mmHg 92%
14:00 +9°C° 0 mm 2 m/s 759 mmHg 90%
15:00 +9°C° 0 mm 2 m/s 759 mmHg 88%
16:00 +8°C° 0 mm 2 m/s 759 mmHg 86%
17:00 +8°C° 0 mm 2 m/s 759 mmHg 84%
18:00 +7°C° 0 mm 2 m/s 758 mmHg 83%
19:00 +7°C° 0 mm 2 m/s 758 mmHg 82%
20:00 +7°C° 0 mm 2 m/s 758 mmHg 81%
21:00 +7°C° 0 mm 2 m/s 758 mmHg 81%
22:00 +6°C° 0 mm 2 m/s 759 mmHg 81%
23:00 +6°C° 0 mm 2 m/s 759 mmHg 81%

Amanhã, 25 Fevereiro, Quinta-feira

Tempo Temperatura Precipitação Vento Pressão Humidade
00:00 +6°C° 0 mm 2 m/s 758 mmHg 81%
01:00 +6°C° 0 mm 2 m/s 758 mmHg 81%
02:00 +5°C° 0 mm 2 m/s 758 mmHg 82%
03:00 +5°C° 0 mm 2 m/s 758 mmHg 83%
04:00 +5°C° 0 mm 2 m/s 758 mmHg 84%
05:00 +5°C° 0 mm 2 m/s 758 mmHg 83%
06:00 +4°C° 0 mm 2 m/s 758 mmHg 83%
07:00 +5°C° 0 mm 1 m/s 758 mmHg 82%
08:00 +6°C° 0 mm 2 m/s 757 mmHg 79%
09:00 +8°C° 0 mm 2 m/s 757 mmHg 75%
10:00 +9°C° 0 mm 2 m/s 757 mmHg 72%
11:00 +10°C° 0 mm 2 m/s 757 mmHg 69%
12:00 +13°C° 0 mm 2 m/s 757 mmHg 65%
13:00 +14°C° 0 mm 2 m/s 757 mmHg 62%
14:00 +13°C° 0 mm 2 m/s 756 mmHg 65%
15:00 +13°C° 0 mm 2 m/s 756 mmHg 68%
16:00 +12°C° 0 mm 2 m/s 755 mmHg 72%
17:00 +10°C° 0 mm 2 m/s 755 mmHg 76%
18:00 +9°C° 0 mm 2 m/s 755 mmHg 80%
19:00 +8°C° 0 mm 2 m/s 755 mmHg 84%
20:00 +7°C° 0 mm 2 m/s 755 mmHg 84%
21:00 +7°C° 0 mm 2 m/s 755 mmHg 85%
22:00 +7°C° 0 mm 3 m/s 755 mmHg 86%
23:00 +7°C° 0 mm 3 m/s 755 mmHg 86%

Depois de amanhã, 26 Fevereiro, Sexta-feira

Tempo Temperatura Precipitação Vento Pressão Humidade
00:00 +5°C° 0 mm 3 m/s 755 mmHg 87%
01:00 +5°C° 0 mm 3 m/s 755 mmHg 87%
02:00 +5°C° 0 mm 3 m/s 755 mmHg 88%
03:00 +4°C° 0 mm 3 m/s 754 mmHg 88%
04:00 +4°C° 0 mm 3 m/s 754 mmHg 89%
05:00 +4°C° 0 mm 3 m/s 754 mmHg 89%
06:00 +4°C° 0 mm 3 m/s 754 mmHg 89%
07:00 +4°C° 0 mm 3 m/s 754 mmHg 89%
08:00 +5°C° 0 mm 3 m/s 754 mmHg 84%
09:00 +8°C° 0 mm 3 m/s 754 mmHg 80%
10:00 +10°C° 0 mm 3 m/s 754 mmHg 76%
11:00 +11°C° 0 mm 3 m/s 754 mmHg 74%
12:00 +12°C° 0 mm 3 m/s 754 mmHg 71%
13:00 +13°C° 0 mm 3 m/s 753 mmHg 69%
14:00 +13°C° 0 mm 3 m/s 753 mmHg 71%
15:00 +12°C° 0 mm 3 m/s 753 mmHg 73%
16:00 +13°C° 0 mm 2 m/s 752 mmHg 75%
17:00 +12°C° 0 mm 2 m/s 752 mmHg 80%
18:00 +10°C° 0 mm 2 m/s 753 mmHg 84%
19:00 +9°C° 0 mm 2 m/s 753 mmHg 89%
20:00 +9°C° 0.3 mm 3 m/s 753 mmHg 89%
21:00 +8°C° 0.3 mm 3 m/s 753 mmHg 90%
22:00 +8°C° 0.3 mm 3 m/s 753 mmHg 91%
23:00 +7°C° 0 mm 3 m/s 753 mmHg 89%

27 Fevereiro, Sábado

Tempo Temperatura Precipitação Vento Pressão Humidade
00:00 +5°C° 0 mm 3 m/s 753 mmHg 87%
01:00 +4°C° 0 mm 3 m/s 753 mmHg 85%
02:00 +4°C° 0 mm 3 m/s 753 mmHg 87%
03:00 +3°C° 0 mm 3 m/s 753 mmHg 89%
04:00 +1°C° 0 mm 4 m/s 753 mmHg 91%
05:00 +1°C° 0 mm 4 m/s 753 mmHg 90%
06:00 +1°C° 0 mm 4 m/s 753 mmHg 89%
07:00 0°C° 0 mm 4 m/s 753 mmHg 88%
08:00 +1°C° 0 mm 5 m/s 753 mmHg 84%
09:00 +2°C° 0 mm 5 m/s 754 mmHg 81%
10:00 +2°C° 0 mm 6 m/s 754 mmHg 77%
11:00 +2°C° 0 mm 6 m/s 754 mmHg 77%
12:00 +2°C° 0 mm 6 m/s 754 mmHg 77%
13:00 +2°C° 0 mm 6 m/s 754 mmHg 77%
14:00 +2°C° 0 mm 6 m/s 754 mmHg 78%
15:00 +2°C° 0 mm 6 m/s 755 mmHg 78%
16:00 +2°C° 0 mm 6 m/s 755 mmHg 78%
17:00 +2°C° 0 mm 5 m/s 755 mmHg 79%
18:00 +2°C° 0 mm 5 m/s 756 mmHg 79%
19:00 +1°C° 0 mm 4 m/s 756 mmHg 80%
20:00 +1°C° 0 mm 4 m/s 757 mmHg 82%
21:00 0°C° 0 mm 4 m/s 757 mmHg 84%
22:00 +1°C° 0 mm 3 m/s 757 mmHg 86%
23:00 0°C° 0 mm 3 m/s 757 mmHg 88%

28 Fevereiro, Domingo

Tempo Temperatura Precipitação Vento Pressão Humidade
00:00 0°C° 0 mm 3 m/s 758 mmHg 90%
01:00 -1°C° 0 mm 3 m/s 758 mmHg 93%
02:00 -1°C° 0 mm 3 m/s 758 mmHg 93%
03:00 -1°C° 0 mm 3 m/s 758 mmHg 94%
04:00 -2°C° 0 mm 2 m/s 758 mmHg 94%
05:00 -2°C° 0 mm 2 m/s 758 mmHg 93%
06:00 -2°C° 0 mm 2 m/s 758 mmHg 92%
07:00 -2°C° 0 mm 2 m/s 759 mmHg 91%
08:00 0°C° 0 mm 3 m/s 759 mmHg 82%
09:00 +1°C° 0 mm 3 m/s 759 mmHg 73%
10:00 +3°C° 0 mm 3 m/s 759 mmHg 63%
11:00 +4°C° 0 mm 3 m/s 759 mmHg 60%
12:00 +5°C° 0 mm 3 m/s 759 mmHg 56%
13:00 +7°C° 0 mm 3 m/s 758 mmHg 52%
14:00 +5°C° 0 mm 3 m/s 758 mmHg 55%
15:00 +5°C° 0 mm 3 m/s 758 mmHg 58%
16:00 +5°C° 0 mm 3 m/s 758 mmHg 61%
17:00 +4°C° 0 mm 2 m/s 758 mmHg 65%
18:00 +3°C° 0 mm 2 m/s 758 mmHg 70%
19:00 +2°C° 0 mm 2 m/s 758 mmHg 75%
20:00 +2°C° 0 mm 2 m/s 759 mmHg 76%
21:00 +1°C° 0 mm 2 m/s 759 mmHg 77%
22:00 +2°C° 0 mm 1 m/s 759 mmHg 78%
23:00 +2°C° 0 mm 1 m/s 759 mmHg 78%

1 Março, Segunda-feira

Tempo Temperatura Precipitação Vento Pressão Humidade
00:00 +2°C° 0 mm 1 m/s 759 mmHg 79%
01:00 +2°C° 0 mm 1 m/s 760 mmHg 80%
02:00 +2°C° 0 mm 1 m/s 759 mmHg 80%
03:00 +1°C° 0 mm 1 m/s 759 mmHg 80%
04:00 +1°C° 0 mm 1 m/s 759 mmHg 81%
05:00 +1°C° 0 mm 1 m/s 760 mmHg 80%
06:00 +2°C° 0 mm 1 m/s 760 mmHg 80%
07:00 +2°C° 0 mm 1 m/s 760 mmHg 80%
08:00 +3°C° 0 mm 1 m/s 760 mmHg 73%
09:00 +4°C° 0 mm 0 m/s 760 mmHg 66%
10:00 +5°C° 0 mm 0 m/s 760 mmHg 59%
11:00 +6°C° 0 mm 0 m/s 760 mmHg 56%
12:00 +7°C° 0 mm 0 m/s 760 mmHg 53%
13:00 +7°C° 0 mm 0 m/s 760 mmHg 51%
14:00 +7°C° 0 mm 0 m/s 761 mmHg 53%
15:00 +7°C° 0 mm 0 m/s 761 mmHg 55%
16:00 +7°C° 0 mm 0 m/s 761 mmHg 57%
17:00 +6°C° 0 mm 0 m/s 761 mmHg 61%
18:00 +5°C° 0 mm 1 m/s 761 mmHg 66%
19:00 +4°C° 0 mm 1 m/s 761 mmHg 70%
20:00 +4°C° 0 mm 1 m/s 762 mmHg 72%
21:00 +3°C° 0 mm 1 m/s 762 mmHg 74%
22:00 +3°C° 0 mm 1 m/s 762 mmHg 75%
23:00 +3°C° 0 mm 1 m/s 762 mmHg 76%
Mostrar mais

Necessitamos do seu Consentimento

A Meteoprog e os seus Fornecedores de Serviços podem armazenar e aceder a dados pessoais como cookies, identificadores do dispositivo ou outras tecnologias semelhantes existentes no seu dispositivo e processar estes dados para personalizar conteúdos e anúncios, assim como funcionalidades nas redes sociais e análise de tráfego.

  • Armazenar e/ou aceder a informações no seu dispositivo

    Os cookies, identificadores do dispositivo ou outras informações podem ser armazenados ou acedidos no seu dispositivo, para os fins acima indicados.

  • Anúncios e conteúdos personalizados, medição de anúncios e conteúdos, dados sobre o público-alvo e desenvolvimento de produtos

    Os anúncios e os conteúdos podem ser personalizados com base num perfil. Podem ser adicionados dados adicionais para uma maior personalização dos anúncios e dos conteúdos. A eficácia dos anúncios e dos conteúdos pode ser medida. Podem ser obtidas informações sobre o público que visualizou os anúncios e os conteúdos. Estes dados podem ser usados para desenvolver ou melhorar sistemas, softwares ou a experiência do utilizador.

Ao clicar em "Eu concordo”, permitirá o uso de cookies, identificadores do dispositivo e web beacons mencionados ou outras tecnologias semelhantes. As configurações do navegador do seu dispositivo podem ser alteradas.

Para certos fins, podem ser invocados interesses legítimos ao invés de consentimento. Pode ler mais informação sobre este assunto na nossa Política de Privacidade e Cookies.